logo meteolombardia

Diretta Meteo Lamezia Terme, Italialunedì 15 luglio ore 18:50

Mappa
Sereno 30 °C Sereno 24 Ore: T.min 21 T.max 32
Ponente Ovest/Sud-Ovest Km/h 9.3 Punto di rugiada: 23 °C Umidità: 66% Visibilità: 10 Km
Il sole sorge alle: 05:40 Il sole tramonta alle: 20:21
15 Luglio 2024 18:50 tempo osservato: Sereno Sereno 30 66 1011 vento: Nord O/SO 9.3
15 Luglio 2024 18:20 tempo osservato: Sereno Sereno 30 62 1011 vento: Nord O/SO 11.1
15 Luglio 2024 17:50 tempo osservato: Sereno Sereno 30 66 1011 vento: Nord O 13
15 Luglio 2024 17:20 tempo osservato: Sereno Sereno 31 62 1011 vento: Nord O/SO 13
15 Luglio 2024 16:50 tempo osservato: Sereno Sereno 31 62 1012 vento: Nord O/SO 16.7
15 Luglio 2024 16:20 tempo osservato: Sereno Sereno 31 62 1012 vento: Nord O/SO 16.7
15 Luglio 2024 15:50 tempo osservato: Sereno Sereno 31 62 1012 vento: Nord SO 18.5
15 Luglio 2024 15:20 tempo osservato: Sereno Sereno 31 62 1012 vento: Nord O/SO 18.5
15 Luglio 2024 14:50 tempo osservato: Sereno Sereno 31 62 1012 vento: Nord O/SO 18.5
15 Luglio 2024 14:20 tempo osservato: Sereno Sereno 32 59 1012 vento: Nord O/SO 18.5
15 Luglio 2024 13:50 tempo osservato: Sereno Sereno 32 59 1012 vento: Nord O/SO 16.7
15 Luglio 2024 13:20 tempo osservato: Sereno Sereno 32 52 1012 vento: Nord O/SO 13
15 Luglio 2024 12:50 tempo osservato: Sereno Sereno 32 52 1012 vento: Nord O 14.8
15 Luglio 2024 12:20 tempo osservato: Sereno Sereno 32 52 1012 vento: Nord O 14.8
15 Luglio 2024 11:50 tempo osservato: Sereno Sereno 31 48 1012 vento: Nord O 14.8
15 Luglio 2024 11:20 tempo osservato: Sereno Sereno 31 58 1012 vento: Nord O 13
15 Luglio 2024 10:50 tempo osservato: Sereno Sereno 31 62 1012 vento: Nord O/SO 11.1
15 Luglio 2024 10:20 tempo osservato: Sereno Sereno 30 66 1013 vento: Nord O/SO 13
15 Luglio 2024 09:50 tempo osservato: Sereno Sereno 29 70 1013 vento: Nord SO 9.3
15 Luglio 2024 09:20 tempo osservato: Sereno Sereno 29 66 1013 vento: Nord O/SO 11.1
15 Luglio 2024 08:50 tempo osservato: Sereno Sereno 28 74 1013 vento: Nord S/SO 7.4
15 Luglio 2024 08:20 tempo osservato: Sereno Sereno 28 69 1013 vento: Nord N 3.7
15 Luglio 2024 07:50 tempo osservato: Sereno Sereno 26 78 1013 vento: Nord N 1.8
15 Luglio 2024 07:20 tempo osservato: Sereno Sereno 24 88 1012 vento: Nord N 5.5
15 Luglio 2024 06:50 tempo osservato: Sereno Sereno 23 94 1012 vento: Nord N 5.5
15 Luglio 2024 06:20 tempo osservato: Sereno Sereno 22 94 1012 vento: Nord E 7.4
15 Luglio 2024 05:50 tempo osservato: Sereno Sereno 21 94 1012 vento: Nord E 9.3
15 Luglio 2024 05:20 tempo osservato: Sereno Sereno 21 94 1012 vento: Nord E/NE 7.4
15 Luglio 2024 04:50 tempo osservato: Sereno Sereno 22 88 1012 vento: Nord E/NE 7.4
15 Luglio 2024 04:20 tempo osservato: Sereno Sereno 22 94 1012 vento: Nord N 5.5
15 Luglio 2024 03:50 tempo osservato: Sereno Sereno 22 94 1012 vento: Nord E/NE 9.3
15 Luglio 2024 03:20 tempo osservato: Sereno Sereno 22 94 1012 vento: Nord N 5.5
15 Luglio 2024 02:50 tempo osservato: Sereno Sereno 22 94 1012 vento: Nord N 5.5
15 Luglio 2024 02:20 tempo osservato: Sereno Sereno 22 94 1012 vento: Nord N 5.5
15 Luglio 2024 01:50 tempo osservato: Sereno Sereno 23 88 1012 vento: Nord N 3.7
15 Luglio 2024 01:20 tempo osservato: Sereno Sereno 23 88 1012 vento: Nord N 3.7
15 Luglio 2024 00:50 tempo osservato: Sereno Sereno 24 83 1012 vento: Nord N 3.7
15 Luglio 2024 00:20 tempo osservato: Poco Nuvoloso Poco Nuvoloso 23 88 1012 vento: Nord N 5.5
14 Luglio 2024 23:50 tempo osservato: Sereno Sereno 24 83 1012 vento: Nord N 5.5
14 Luglio 2024 23:20 tempo osservato: Sereno Sereno 25 83 1012 vento: Nord N 7.4
14 Luglio 2024 22:50 tempo osservato: Poco Nuvoloso Poco Nuvoloso 26 78 1012 vento: Nord N 5.5
14 Luglio 2024 22:20 tempo osservato: Poco Nuvoloso Poco Nuvoloso 25 83 1012 vento: Nord N 3.7
14 Luglio 2024 21:50 tempo osservato: Sereno Sereno 26 78 1012 vento: Nord S 7.4
14 Luglio 2024 21:20 tempo osservato: Sereno Sereno 26 83 1012 vento: Nord SO 9.3
14 Luglio 2024 20:50 tempo osservato: Sereno Sereno 27 74 1012 vento: Nord SO 9.3
14 Luglio 2024 20:20 tempo osservato: Sereno Sereno 28 69 1012 vento: Nord O/SO 7.4
14 Luglio 2024 19:50 tempo osservato: Sereno Sereno 28 69 1012 vento: Nord O/SO 11.1